Back to catalog

STARLINK-31470

AliveCommunicationsVLEO
NORAD 59569·PAYLOAD·🇺🇸 United States

Launched Apr 23, 2024 from Cape Canaveral Space Force Station

Loading…

Next Passes (next 24 hours)

TLE

FreshSource: CelesTrak SupGP

Epoch: Sep 14, 2026, 14:55 UTC

1 59569C 24076F   26257.62201389  .00006712  00000+0  24334-3 0  2577
2 59569  43.0045  18.6100 0001933 276.2528 197.0113 15.27542240    11

Track STARLINK-31470 in real time with AllMySat

Download on the App Store